NUSAT-28 (ALICE LEE) (52747 NORAD) Tracking and Keplerian Element Data

This shows tracking and keplerian element data for the satellite.

Feedback or suggestion? Click here.




ElementValue
Catalog52747
NameNUSAT-28 (ALICE LEE)
Epoch Orbit717
Epoch Day193.17042954
Epoch Year2022
RAAN307.4992
Inclination97.4656
Eccentricity0.0011921
Argument of Perigee66.6983
Mean Anonmoly293.5504
Mean Motion15.17405182
Decay Rate5.219E-05
L11 52747U 22057R 22193.17042954 .00005219 00000+0 26399-3 0 9998
L22 52747 97.4656 307.4992 0011921 66.6983 293.5504 15.17405182 7177

Live tracking and technical data element details for NUSAT-28 (ALICE LEE) (NORAD 52747). NUSAT-28 (ALICE LEE) can be tracked NOW for your location showing map with azimuth and elevation plus other details from your city location.

Track the satellite on the map from your city or location and see movement details for azimuth, elevation, latitude, longitude, range, height, and movement on the map or in text.







IsCatalogInMostPopularTable: catalog: 52747, numindb: 4
Update: records affected: 1



GetName: 52747 NUSAT-28 (ALICE LEE)

Hit Count: updated at: Sun, 14 Aug 2022 01:31:32 GMT